TimeCDT,TemperatureF,Dew PointF,Humidity,Sea Level PressureIn,VisibilityMPH,Wind Direction,Wind SpeedMPH,Gust SpeedMPH,PrecipitationIn,Events,Conditions,WindDirDegrees,DateUTC
12:15 AM,37.6,31.6,79,30.11,10.0,WSW,4.6,-,N/A,,Clear,240,2012-10-06 05:15:00
12:35 AM,37.4,31.8,80,30.11,10.0,West,6.9,-,N/A,,Clear,260,2012-10-06 05:35:00
12:55 AM,36.5,32.0,84,30.11,10.0,West,5.8,-,N/A,,Clear,260,2012-10-06 05:55:00
1:15 AM,36.1,32.0,85,30.11,10.0,West,5.8,-,N/A,,Clear,260,2012-10-06 06:15:00
1:35 AM,35.6,31.6,85,30.11,10.0,WSW,5.8,-,N/A,,Clear,250,2012-10-06 06:35:00
1:55 AM,35.4,31.3,85,30.11,10.0,West,5.8,-,N/A,,Clear,260,2012-10-06 06:55:00
2:15 AM,34.7,31.1,87,30.11,10.0,West,5.8,-,N/A,,Clear,260,2012-10-06 07:15:00
2:35 AM,34.7,30.9,86,30.10,10.0,West,6.9,-,N/A,,Clear,260,2012-10-06 07:35:00
2:55 AM,34.2,30.6,87,30.11,10.0,West,4.6,-,N/A,,Clear,260,2012-10-06 07:55:00
3:15 AM,34.0,30.2,86,30.10,10.0,West,6.9,-,N/A,,Clear,270,2012-10-06 08:15:00
3:35 AM,33.6,30.0,87,30.11,10.0,West,5.8,-,N/A,,Clear,270,2012-10-06 08:35:00
3:55 AM,33.6,29.7,85,30.11,10.0,West,6.9,-,N/A,,Clear,270,2012-10-06 08:55:00
4:15 AM,33.8,30.2,87,30.11,10.0,West,8.1,-,N/A,,Clear,270,2012-10-06 09:15:00
4:35 AM,32.9,29.1,86,30.11,10.0,West,6.9,-,N/A,,Clear,270,2012-10-06 09:35:00
4:55 AM,32.2,29.1,88,30.12,10.0,West,8.1,-,N/A,,Clear,270,2012-10-06 09:55:00
5:15 AM,32.5,28.6,85,30.12,10.0,West,6.9,-,N/A,,Clear,280,2012-10-06 10:15:00
5:35 AM,33.8,28.4,81,30.13,10.0,West,10.4,-,N/A,,Clear,280,2012-10-06 10:35:00
5:55 AM,33.4,28.0,81,30.14,10.0,West,8.1,-,N/A,,Clear,270,2012-10-06 10:55:00
6:15 AM,32.7,28.2,83,30.14,10.0,West,6.9,-,N/A,,Clear,270,2012-10-06 11:15:00
6:35 AM,32.0,28.0,85,30.15,10.0,West,5.8,-,N/A,,Clear,270,2012-10-06 11:35:00
6:55 AM,31.8,27.9,85,30.14,10.0,West,5.8,-,N/A,,Clear,270,2012-10-06 11:55:00
7:15 AM,32.0,28.2,86,30.14,10.0,West,4.6,-,N/A,,Clear,270,2012-10-06 12:15:00
7:35 AM,32.0,28.4,87,30.16,10.0,WSW,6.9,-,N/A,,Clear,240,2012-10-06 12:35:00
7:55 AM,32.9,29.1,86,30.16,10.0,West,6.9,-,N/A,,Clear,260,2012-10-06 12:55:00
8:15 AM,34.9,29.5,81,30.16,10.0,WSW,8.1,-,N/A,,Clear,250,2012-10-06 13:15:00
8:35 AM,36.0,29.7,78,30.17,10.0,West,9.2,-,N/A,,Clear,260,2012-10-06 13:35:00
8:55 AM,37.2,30.0,75,30.17,10.0,West,11.5,-,N/A,,Clear,270,2012-10-06 13:55:00
9:15 AM,38.3,30.9,75,30.17,10.0,West,9.2,-,N/A,,Clear,270,2012-10-06 14:15:00
9:35 AM,39.0,31.1,73,30.18,10.0,West,10.4,-,N/A,,Clear,270,2012-10-06 14:35:00
9:55 AM,40.1,31.8,72,30.18,10.0,West,9.2,-,N/A,,Clear,260,2012-10-06 14:55:00
10:15 AM,41.0,32.0,70,30.18,10.0,WSW,10.4,-,N/A,,Clear,250,2012-10-06 15:15:00
10:35 AM,41.7,32.0,68,30.18,10.0,West,10.4,-,N/A,,Clear,270,2012-10-06 15:35:00
10:55 AM,43.3,32.0,64,30.18,10.0,West,11.5,-,N/A,,Clear,260,2012-10-06 15:55:00
11:15 AM,44.8,31.6,60,30.18,10.0,West,12.7,17.3,N/A,,Clear,260,2012-10-06 16:15:00
11:35 AM,45.9,30.6,55,30.18,10.0,WNW,9.2,19.6,N/A,,Scattered Clouds,290,2012-10-06 16:35:00
11:55 AM,45.5,30.2,55,30.18,10.0,WNW,8.1,18.4,N/A,,Mostly Cloudy,290,2012-10-06 16:55:00
12:15 PM,46.2,30.2,54,30.18,10.0,West,6.9,-,N/A,,Overcast,280,2012-10-06 17:15:00
12:35 PM,47.3,30.0,51,30.18,10.0,West,11.5,16.1,N/A,,Overcast,280,2012-10-06 17:35:00
12:55 PM,48.4,30.2,49,30.17,10.0,WNW,8.1,17.3,N/A,,Mostly Cloudy,290,2012-10-06 17:55:00
1:15 PM,47.8,29.5,49,30.16,10.0,WNW,9.2,17.3,N/A,,Mostly Cloudy,290,2012-10-06 18:15:00
1:35 PM,49.3,29.7,47,30.15,10.0,West,11.5,18.4,N/A,,Mostly Cloudy,260,2012-10-06 18:35:00
1:55 PM,49.5,30.6,48,30.15,10.0,West,11.5,-,N/A,,Mostly Cloudy,280,2012-10-06 18:55:00
2:15 PM,48.9,29.5,47,30.15,10.0,WNW,12.7,18.4,N/A,,Mostly Cloudy,290,2012-10-06 19:15:00
2:35 PM,48.7,28.8,46,30.15,10.0,WNW,6.9,-,N/A,,Overcast,300,2012-10-06 19:35:00
2:55 PM,49.3,28.2,44,30.15,10.0,WNW,4.6,17.3,N/A,,Overcast,300,2012-10-06 19:55:00
3:15 PM,50.0,28.4,43,30.15,10.0,West,9.2,16.1,N/A,,Overcast,270,2012-10-06 20:15:00
3:35 PM,50.0,28.8,44,30.15,10.0,West,10.4,-,N/A,,Overcast,270,2012-10-06 20:35:00
3:55 PM,49.1,27.7,44,30.15,10.0,NW,4.6,-,N/A,,Overcast,310,2012-10-06 20:55:00
4:15 PM,48.7,27.3,43,30.14,10.0,West,11.5,-,N/A,,Overcast,280,2012-10-06 21:15:00
4:35 PM,48.6,27.3,44,30.15,10.0,WNW,6.9,-,N/A,,Overcast,300,2012-10-06 21:35:00
4:55 PM,48.2,27.7,45,30.15,10.0,NW,8.1,-,N/A,,Overcast,310,2012-10-06 21:55:00
5:15 PM,47.5,27.9,47,30.16,10.0,NW,8.1,-,N/A,,Overcast,320,2012-10-06 22:15:00
5:35 PM,47.3,28.0,47,30.16,10.0,NW,5.8,-,N/A,,Overcast,310,2012-10-06 22:35:00
5:55 PM,46.8,27.5,47,30.17,10.0,NW,5.8,-,N/A,,Overcast,310,2012-10-06 22:55:00
6:15 PM,46.4,27.5,48,30.18,10.0,NW,6.9,-,N/A,,Overcast,310,2012-10-06 23:15:00
6:35 PM,46.4,27.9,48,30.18,10.0,NW,6.9,-,N/A,,Overcast,310,2012-10-06 23:35:00
6:55 PM,45.9,28.2,50,30.18,10.0,NW,6.9,-,N/A,,Overcast,320,2012-10-06 23:55:00
7:15 PM,45.5,27.9,50,30.18,10.0,NW,8.1,-,N/A,,Overcast,320,2012-10-07 00:15:00
7:35 PM,45.1,28.2,52,30.19,10.0,NW,4.6,-,N/A,,Overcast,320,2012-10-07 00:35:00
7:55 PM,44.6,28.0,52,30.18,10.0,NW,6.9,-,N/A,,Overcast,320,2012-10-07 00:55:00
8:15 PM,44.6,27.7,52,30.19,10.0,NW,4.6,-,N/A,,Overcast,310,2012-10-07 01:15:00
8:35 PM,44.4,27.9,52,30.19,10.0,NW,5.8,-,N/A,,Overcast,310,2012-10-07 01:35:00
8:55 PM,43.9,29.3,57,30.19,10.0,WNW,5.8,-,N/A,,Overcast,290,2012-10-07 01:55:00
9:15 PM,43.7,28.9,56,30.19,10.0,WNW,5.8,-,N/A,,Overcast,290,2012-10-07 02:15:00
9:35 PM,43.7,28.9,56,30.19,10.0,West,5.8,-,N/A,,Overcast,280,2012-10-07 02:35:00
9:55 PM,43.0,30.2,61,30.19,10.0,West,5.8,-,N/A,,Overcast,280,2012-10-07 02:55:00
10:15 PM,42.8,31.1,63,30.19,10.0,West,4.6,-,N/A,,Overcast,260,2012-10-07 03:15:00
10:35 PM,42.4,31.6,66,30.19,10.0,West,4.6,-,N/A,,Overcast,270,2012-10-07 03:35:00
10:55 PM,42.3,31.6,66,30.19,10.0,West,4.6,-,N/A,,Overcast,270,2012-10-07 03:55:00
11:15 PM,41.9,31.6,67,30.20,10.0,West,4.6,-,N/A,,Overcast,260,2012-10-07 04:15:00
11:35 PM,42.8,30.2,61,30.19,10.0,West,5.8,-,N/A,,Overcast,280,2012-10-07 04:35:00
11:55 PM,42.1,30.2,63,30.19,10.0,WNW,5.8,-,N/A,,Overcast,290,2012-10-07 04:55:00